{"data":{"norad_id":68180,"intl_designator":"2026-050P","name":"STARLINK-37035","alt_names":[],"object_type":"PAYLOAD","status":"ACTIVE","operator":null,"country":"US","launch_date":"2026-03-14","launch_site_code":"AFETR","launch_vehicle":null,"mission":null,"orbit_class":"UNKNOWN","rcs_meters":null,"size_class":null,"mass_kg":null,"dimensions":null,"purposes":["comms"],"wikipedia_slug":null,"has_3d_model":false,"image_url":null,"decayed_at":null,"tle_current":{"epoch":"2026-05-24T16:56:11.583168Z","epoch_age_seconds":107426,"freshness":"FRESH","line1":"1 68180U 26050P   26144.70568962  .00042425  00000+0  10915-2 0  9990","line2":"2 68180  53.1586 273.5166 0001187  57.6662 302.4457 15.38860087 12321","mean_motion":15.38860087,"eccentricity":0.0001187,"inclination_deg":53.1586,"raan_deg":273.5166,"arg_perigee_deg":57.6662,"mean_anomaly_deg":302.4457,"bstar":0.0010915,"rev_number":1232,"period_min":93.575758586817,"perigee_km":448.66851141631,"apogee_km":450.28938744271,"semimajor_km":6827.6159494295,"source":"CELESTRAK","updated_at":"2026-05-25T13:38:21.855000Z"}}}